Flag for Germany Weather past 2 weeks in Königs Wusterhausen, Brandenburg, Germany

Now
91 °F

Passing clouds.


Feels Like: 89 °F
Forecast: 64 / 79 °F
Wind: 14 mph from Southeast

Location: Berlin-Schoenefeld

Current Time: Aug 4, 2015 at 2:18:30 PM

Latest Report: Aug 4, 2015 at 1:50 PM


Visibility: N/A

Pressure: 29.86 "Hg

Humidity: 30%

Dew point: 55 °F

Location of Königs WusterhausenLocation

Historic Weather in Königs Wusterhausen — Graph

°F

Königs Wusterhausen temperature yesterday

Maximum temperature yesterday: 90 °F (at 3:20 PM)
Minimum temperature yesterday: 57 °F (at 5:20 AM)
Average temperature yesterday: 75 °F

Past Weeks' High & Low Weather Summary

 TemperatureHumidityPressure
High91 °F (Aug 4, 12:20 PM)100% (Jul 23, 1:50 AM)30.12 "Hg (Jul 23, 1:50 AM)
Low45 °F (Aug 1, 2:50 AM)19% (Aug 2, 6:20 PM)29.53 "Hg (Jul 25, 6:50 AM)
Average67 °F60%29.87 "Hg
* Reported Jul 20 1:20 PM — Aug 4 1:20 PM, Königs Wusterhausen, Weather by CustomWeather, © 2015

Note: Actual official high and low records may vary slightly from our data, if they occured in-between our weather recording intervals... More about our weather records

Advertising

Königs Wusterhausen weather history for previous 24 hours

 ConditionsComfort  
Time TempWeatherWind HumidityBarometerVisibility
1:20 PM
Tue, Aug 4
91 °FPassing clouds.16 mph30%29.89 "HgN/A
12:50 PM91 °FPassing clouds.14 mph28%29.89 "HgN/A
12:20 PM91 °FPassing clouds.14 mph28%29.89 "HgN/A
11:50 AM90 °FPassing clouds.10 mph29%29.92 "HgN/A
11:20 AM88 °FPassing clouds.10 mph33%29.92 "HgN/A
10:50 AM86 °FPassing clouds.8 mph38%29.95 "HgN/A
10:20 AM84 °FPassing clouds.6 mph40%29.95 "HgN/A
9:50 AM82 °FPassing clouds.7 mph42%29.95 "HgN/A
9:20 AM79 °FPassing clouds.5 mph51%29.95 "HgN/A
8:50 AM75 °FSunny.5 mph54%29.95 "Hg10 mi
8:20 AM72 °FPassing clouds.5 mph57%29.98 "HgN/A
7:50 AM70 °FPassing clouds.5 mph60%29.98 "HgN/A
7:20 AM68 °FSunny.6 mph64%29.98 "Hg10 mi
6:50 AM66 °FSunny.3 mph68%29.98 "Hg10 mi
6:20 AM64 °FClear.5 mph73%29.98 "Hg10 mi
5:50 AM63 °FClear.5 mph73%29.98 "Hg10 mi
5:20 AM64 °FClear.3 mph73%29.98 "Hg10 mi
4:50 AM63 °FClear.5 mph77%29.98 "Hg10 mi
4:20 AM64 °FClear.2 mph73%29.98 "Hg10 mi
3:50 AM63 °FClear.2 mph73%29.98 "Hg10 mi
3:20 AM66 °FClear.2 mph68%29.98 "Hg10 mi
2:50 AM66 °FClear.5 mph68%29.98 "Hg10 mi
2:20 AM66 °FClear.5 mph68%30.01 "Hg10 mi
1:50 AM66 °FClear.7 mph68%30.01 "Hg10 mi
1:20 AM66 °FClear.7 mph68%30.01 "Hg10 mi
12:50 AM68 °FClear.5 mph64%30.01 "Hg10 mi
12:20 AM68 °FClear.5 mph64%30.01 "Hg10 mi
11:20 PM
Mon, Aug 3
70 °FClear.3 mph64%30.01 "Hg10 mi
10:50 PM72 °FClear.3 mph57%30.01 "Hg10 mi
10:20 PM77 °FClear.3 mph44%30.01 "Hg10 mi
9:50 PM77 °FSunny.3 mph44%30.01 "Hg10 mi
9:20 PM77 °FSunny.3 mph44%30.01 "Hg10 mi
8:50 PM81 °FSunny.3 mph37%30.01 "Hg10 mi
8:20 PM84 °FSunny.2 mph31%30.01 "Hg10 mi
7:50 PM86 °FSunny.3 mph31%30.01 "Hg10 mi
7:20 PM86 °FPassing clouds.6 mph29%30.01 "HgN/A
6:50 PM88 °FSunny.7 mph27%30.01 "Hg10 mi
6:20 PM88 °FSunny.7 mph27%30.01 "Hg10 mi
5:50 PM88 °FSunny.7 mph25%30.01 "Hg10 mi
5:20 PM88 °FSunny.6 mph25%30.04 "Hg10 mi
4:50 PM88 °FSunny.2 mph25%30.04 "Hg10 mi
4:20 PM90 °FSunny.8 mph26%30.04 "Hg10 mi
3:50 PM90 °FSunny.5 mph24%30.04 "Hg10 mi
3:20 PM90 °FSunny.5 mph26%30.04 "Hg10 mi
2:20 PM88 °FSunny.8 mph27%30.07 "Hg10 mi
Weather by CustomWeather, © 2015

See weather overviewHow to use our weather pages